Content
SEND FEEDBACK

Daily
Averages
Monthly
Summary
United States of America

SPRINGFIELD, MISSOURI


Home > North America > United States > Missouri
Elevation: 1268 feet     Latitude: 37 14N     Longitude: 093 23W

WEATHER
 
SELECT A DAY
Number of Records: 209,322;   Date Range: 1/1/95 - 11/21/14
 
SHARE

PRINT THIS DATA

[ ← Previous Day ]
WEATHER ALMANAC - JANUARY 23, 2013
[ Next Day → ]
[ °C ]   °F
Weather ElementAverageHighLow
Temperature37.1 °F55.9 °F (1:52 pm)23 °F (4:52 am)
Dewpoint27 °F37.9 °F (1:52 pm)17.1 °F (1:52 am)
Humidity68 %81 % (4:52 am)51 % (1:52 pm)
Barometer30.24 in30.31 in (11:52 pm)30.16 in (1:52 pm)
Wind Speed8.6 mph13.8 mph (11:52 pm)
Weather ElementAverage
Visibility10 mi
Wind DirectionSSE (169.6 °)

Weather ElementTotal
Precipitation---
Heating Degree Days25.6 (Base 65)
Averaged from 23 records on January 23, 2013
WEATHER CONDITIONS BREAKOUT
WIND DIRECTION BREAKOUT
WEATHER BY HOUR - JANUARY 23, 2013
[ °C ]   °F
Local TimeTemperatureDewpointHumidityBarometerVisibilityWind DirectionWind SpeedGust SpeedPrecipitationEventsConditions
1:52 AM24.1 °F17.1 °F75 %30.27 in10.0 miSSE (160°)9.2 mphClear
2:52 AM24.1 °F18.0 °F77 %30.27 in10.0 miSSE (160°)10.4 mphClear
3:52 AM24.1 °F18.0 °F77 %30.25 in10.0 miSSE (160°)9.2 mphClear
4:52 AM23.0 °F18.0 °F81 %30.25 in10.0 miSSE (150°)10.4 mphClear
5:52 AM23.0 °F18.0 °F81 %30.26 in10.0 miSSE (160°)8.1 mphClear
6:52 AM23.0 °F18.0 °F81 %30.27 in10.0 miSSE (160°)12.7 mphClear
7:52 AM23.0 °F18.0 °F81 %30.27 in10.0 miSSE (160°)8.1 mphClear
8:52 AM28.0 °F21.0 °F75 %30.26 in10.0 miSouth (170°)9.2 mphClear
9:52 AM34.0 °F24.1 °F67 %30.28 in10.0 miSouth (170°)5.8 mphClear
10:52 AM41.0 °F28.9 °F62 %30.26 in10.0 miSW (220°)5.8 mphClear
11:52 AM46.0 °F30.9 °F56 %30.22 in10.0 miVariable3.5 mphClear
12:52 PM52.0 °F35.1 °F53 %30.19 in10.0 miWest (280°)5.8 mphClear
1:52 PM55.9 °F37.9 °F51 %30.16 in10.0 miWNW (290°)9.2 mphClear
2:52 PM55.9 °F37.9 °F51 %30.17 in10.0 miWest (260°)9.2 mphClear
3:52 PM55.9 °F37.9 °F51 %30.16 in10.0 miWNW (300°)5.8 mphClear
4:52 PM48.9 °F37.0 °F64 %30.16 in10.0 miNW (320°)6.9 mphClear
5:52 PM46.9 °F37.0 °F68 %30.18 in10.0 miWNW (300°)3.5 mphClear
6:52 PM42.1 °F35.1 °F76 %30.21 in10.0 miNorth (350°)9.2 mphClear
7:52 PM41.0 °F32.0 °F70 %30.25 in10.0 miNorth (10°)10.4 mphClear
8:52 PM37.9 °F28.0 °F68 %30.27 in10.0 miNNE (30°)11.5 mphClear
9:52 PM35.1 °F26.1 °F70 %30.28 in10.0 miNE (40°)9.2 mphClear
10:52 PM34.0 °F24.1 °F67 %30.29 in10.0 miNNE (30°)10.4 mphClear
11:52 PM34.0 °F21.9 °F61 %30.31 in10.0 miNNE (20°)13.8 mphClear
Hourly data recorded from KSGF, located miles away from Springfield, Missouri







STORIES FROM OUR PARTNERS